| time (UTC) | temp C | wind direction | speed KPH | gust KPH | rain 1hr cm | rain 24hr cm | rain mn cm | humidity % | barometer mb |
| 20260831183031 | 19 | 196 | 1.6 | 0.0 | 0.00 | 0.00 | 0.03 | 100 | 1019.8 |
| 20260831181528 | 18 | 196 | 0.0 | 0.0 | 0.00 | 0.00 | 0.03 | 100 | 1019.8 |
| 20260831180025 | 18 | 196 | 1.6 | 0.0 | 0.00 | 0.00 | 0.03 | 100 | 1020.2 |
| 20260831174520 | 18 | 194 | 0.0 | 0.0 | 0.00 | 0.00 | 0.03 | 100 | 1020.1 |
| 20260831173025 | 18 | 194 | 0.0 | 0.0 | 0.00 | 0.00 | 0.03 | 100 | 1020.3 |
| 20260831171514 | 19 | 194 | 0.0 | 0.0 | 0.00 | 0.00 | 0.00 | 5 | 1020.1 |
| 20260831170011 | 19 | 198 | 4.8 | 0.0 | 0.00 | 0.00 | 0.00 | 21 | 1020.5 |
| 20260831164506 | 20 | 205 | 6.4 | 0.0 | 0.00 | 0.00 | 0.00 | 31 | 1020.4 |
| 20260831163005 | 21 | 231 | 3.2 | 0.0 | 0.00 | 0.00 | 0.00 | 46 | 1020.5 |
| 20260831161558 | 21 | 169 | 1.6 | 0.0 | 0.00 | 0.00 | 0.00 | 49 | 1020.4 |
| 20260831160055 | 22 | 143 | 0.0 | 0.0 | 0.00 | 0.00 | 0.00 | 50 | 1020.4 |
| 20260831154550 | 22 | 140 | 0.0 | 0.0 | 0.00 | 0.00 | 0.00 | 50 | 1020.4 |
| 20260831153043 | 22 | 140 | 0.0 | 0.0 | 0.00 | 0.00 | 0.00 | 48 | 1020.5 |
| 20260831151539 | 21 | 138 | 0.0 | 0.0 | 0.00 | 0.00 | 0.00 | 46 | 1020.7 |
| 20260831150034 | 21 | 136 | 1.6 | 0.0 | 0.00 | 0.00 | 0.00 | 40 | 1020.6 |
| 20260831144530 | 20 | 124 | 1.6 | 0.0 | 0.00 | 0.00 | 0.00 | 29 | 1020.5 |
| 20260831143027 | 19 | 74 | 1.6 | 0.0 | 0.00 | 0.00 | 0.00 | 22 | 1020.8 |
| 20260831141523 | 18 | 81 | 0.0 | 0.0 | 0.00 | 0.00 | 0.00 | 10 | 1020.9 |
| 20260831140019 | 18 | 82 | 1.6 | 0.0 | 0.00 | 0.00 | 0.00 | 5 | 1020.9 |
| 20260831134515 | 18 | 106 | 1.6 | 0.0 | 0.00 | 0.00 | 0.00 | 100 | 1020.7 |
| 20260831133020 | 18 | 174 | 1.6 | 0.0 | 0.00 | 0.00 | 0.00 | 100 | 1020.7 |
| 20260831131530 | 17 | 224 | 0.0 | 0.0 | 0.00 | 0.00 | 0.00 | 100 | 1020.5 |
| 20260831130009 | 17 | 229 | 0.0 | 0.0 | 0.00 | 0.00 | 0.00 | 100 | 1020.5 |
| 20260831124505 | 17 | 230 | 0.0 | 0.0 | 0.00 | 0.00 | 0.00 | 100 | 1020.7 |
| 20260831123100 | 17 | 230 | 0.0 | 0.0 | 0.00 | 0.00 | 0.00 | 100 | 1020.8 |
| 20260831121553 | 16 | 230 | 0.0 | 0.0 | 0.00 | 0.00 | 0.00 | 100 | 1020.8 |
| 20260831120049 | 16 | 230 | 0.0 | 0.0 | 0.00 | 0.00 | 0.00 | 100 | 1020.7 |
| 20260831114544 | 16 | 230 | 0.0 | 0.0 | 0.00 | 0.00 | 0.00 | 100 | 1020.7 |
| 20260831113041 | -17 | 0.0 | 0.0 | 0.00 | 0.00 | 0.00 | 1020.4 | ||
| 20260831111536 | -17 | 0.0 | 0.0 | 0.00 | 0.00 | 0.00 | 1020.7 | ||
| 20260831110037 | -17 | 0.0 | 0.0 | 0.00 | 0.00 | 0.00 | 1020.4 | ||
| 20260831104536 | -17 | 0.0 | 0.0 | 0.00 | 0.00 | 0.00 | 1020.6 | ||
| 20260831103029 | -17 | 0.0 | 0.0 | 0.00 | 0.00 | 0.00 | 1020.6 | ||
| 20260831101520 | 16 | 230 | 0.0 | 0.0 | 0.00 | 0.00 | 0.00 | 100 | 1020.3 |
| 20260831100016 | 16 | 230 | 0.0 | 0.0 | 0.00 | 0.00 | 0.00 | 100 | 1020.3 |
| 20260831094512 | 16 | 230 | 0.0 | 0.0 | 0.00 | 0.00 | 0.00 | 100 | 1020.3 |
| 20260831093014 | 16 | 230 | 0.0 | 0.0 | 0.00 | 0.00 | 0.00 | 100 | 1020.3 |
| 20260831091505 | 16 | 230 | 0.0 | 0.0 | 0.00 | 0.00 | 0.00 | 100 | 1020.3 |
| 20260831090001 | 16 | 230 | 0.0 | 0.0 | 0.00 | 0.00 | 0.00 | 100 | 1020.3 |
| 20260831084557 | 16 | 230 | 0.0 | 0.0 | 0.00 | 0.00 | 0.00 | 100 | 1020.3 |
| 20260831083053 | 16 | 230 | 0.0 | 0.0 | 0.00 | 0.00 | 0.00 | 100 | 1020.4 |
| 20260831081549 | 16 | 230 | 0.0 | 0.0 | 0.00 | 0.00 | 0.00 | 100 | 1020.4 |
| 20260831080045 | 16 | 230 | 0.0 | 0.0 | 0.00 | 0.00 | 0.00 | 100 | 1020.3 |
| 20260831074540 | 16 | 230 | 0.0 | 0.0 | 0.00 | 0.00 | 0.00 | 100 | 1020.3 |
| 20260831073038 | 16 | 230 | 0.0 | 0.0 | 0.00 | 0.00 | 0.00 | 100 | 1019.9 |
| 20260831071534 | 16 | 230 | 0.0 | 0.0 | 0.00 | 0.00 | 0.00 | 100 | 1019.9 |
| 20260831070030 | 16 | 230 | 0.0 | 0.0 | 0.00 | 0.00 | 0.00 | 100 | 1020.0 |
| 20260831064527 | 16 | 230 | 0.0 | 0.0 | 0.00 | 0.00 | 0.00 | 100 | 1020.3 |
| 20260831063023 | 16 | 230 | 0.0 | 0.0 | 0.00 | 0.00 | 0.00 | 100 | 1020.4 |
| 20260831061519 | 16 | 230 | 0.0 | 0.0 | 0.00 | 0.00 | 0.00 | 100 | 1020.5 |
| 20260831060014 | 16 | 230 | 1.6 | 0.0 | 0.00 | 0.00 | 0.00 | 100 | 1020.6 |
| 20260831054512 | 16 | 230 | 0.0 | 0.0 | 0.00 | 0.00 | 0.00 | 100 | 1020.7 |
| 20260831053006 | 16 | 230 | 0.0 | 0.0 | 0.00 | 0.00 | 0.00 | 100 | 1020.6 |
| 20260831051502 | 16 | 231 | 0.0 | 0.0 | 0.00 | 0.00 | 0.00 | 100 | 1020.6 |
| 20260831050058 | 16 | 231 | 0.0 | 0.0 | 0.00 | 0.00 | 0.00 | 100 | 1020.7 |
| 20260831044601 | 16 | 231 | 0.0 | 0.0 | 0.00 | 0.00 | 0.00 | 100 | 1020.7 |
| 20260831043050 | 16 | 229 | 0.0 | 0.0 | 0.00 | 0.00 | 0.00 | 100 | 1020.7 |
| 20260831040043 | 16 | 229 | 0.0 | 0.0 | 0.00 | 0.00 | 0.00 | 100 | 1020.9 |
| 20260831034537 | 16 | 229 | 0.0 | 0.0 | 0.00 | 0.00 | 0.03 | 100 | 1020.9 |
| 20260831033036 | 16 | 229 | 0.0 | 0.0 | 0.00 | 0.00 | 0.03 | 100 | 1020.9 |
| 20260831031534 | 16 | 228 | 0.0 | 0.0 | 0.00 | 0.00 | 0.03 | 100 | 1020.9 |
| 20260831030031 | 16 | 228 | 0.0 | 0.0 | 0.00 | 0.00 | 0.03 | 100 | 1020.9 |
| 20260831024528 | 16 | 228 | 1.6 | 0.0 | 0.00 | 0.00 | 0.03 | 100 | 1020.9 |
| 20260831023020 | 16 | 229 | 0.0 | 0.0 | 0.00 | 0.00 | 0.03 | 100 | 1020.9 |
| 20260831021525 | 17 | 229 | 0.0 | 0.0 | 0.00 | 0.00 | 0.03 | 100 | 1020.8 |
| 20260831020013 | 17 | 229 | 0.0 | 0.0 | 0.00 | 0.00 | 0.03 | 100 | 1020.9 |
| 20260831014517 | 17 | 229 | 1.6 | 0.0 | 0.00 | 0.00 | 0.03 | 100 | 1020.9 |
| 20260831013005 | 17 | 225 | 4.8 | 0.0 | 0.00 | 0.00 | 0.03 | 100 | 1020.9 |
| 20260831011600 | 17 | 242 | 1.6 | 0.0 | 0.00 | 0.00 | 0.03 | 100 | 1020.7 |
| 20260831010119 | 16 | 248 | 1.6 | 0.0 | 0.00 | 0.00 | 0.03 | 100 | 1020.5 |
| 20260831004555 | 17 | 257 | 0.0 | 0.0 | 0.00 | 0.00 | 0.03 | 100 | 1020.2 |
| 20260831003048 | 17 | 259 | 0.0 | 0.0 | 0.00 | 0.00 | 0.03 | 100 | 1019.8 |
| 20260831001544 | 17 | 259 | 0.0 | 0.0 | 0.00 | 0.00 | 0.03 | 100 | 1019.6 |
| 20260831000140 | 17 | 259 | 0.0 | 0.0 | 0.00 | 0.00 | 0.03 | 100 | 1019.3 |
| 20260830234538 | 17 | 260 | 0.0 | 0.0 | 0.00 | 0.00 | 0.03 | 100 | 1019.1 |
| 20260830233035 | 17 | 261 | 0.0 | 0.0 | 0.00 | 0.00 | 0.03 | 100 | 1019.2 |
| 20260830231529 | 17 | 262 | 1.6 | 0.0 | 0.00 | 0.00 | 0.03 | 100 | 1019.0 |
| 20260830230026 | 17 | 278 | 0.0 | 0.0 | 0.00 | 0.00 | 0.03 | 100 | 1019.2 |
| 20260830224523 | 17 | 279 | 0.0 | 0.0 | 0.00 | 0.00 | 0.03 | 100 | 1019.2 |
| 20260830223017 | 17 | 284 | 0.0 | 0.0 | 0.00 | 0.00 | 0.03 | 100 | 1019.2 |
| 20260830221512 | 18 | 288 | 0.0 | 0.0 | 0.00 | 0.00 | 0.03 | 100 | 1019.2 |
| 20260830220009 | 18 | 288 | 0.0 | 0.0 | 0.00 | 0.00 | 0.03 | 100 | 1019.1 |
| 20260830214504 | 18 | 288 | 0.0 | 0.0 | 0.00 | 0.00 | 0.00 | 13 | 1019.1 |
| 20260830213005 | 19 | 287 | 3.2 | 0.0 | 0.00 | 0.00 | 0.00 | 33 | 1019.0 |
| 20260830211600 | 20 | 264 | 3.2 | 0.0 | 0.00 | 0.00 | 0.00 | 44 | 1018.7 |
| 20260830210054 | 21 | 257 | 3.2 | 0.0 | 0.00 | 0.00 | 0.00 | 52 | 1018.6 |
| 20260830204549 | 21 | 240 | 1.6 | 0.0 | 0.00 | 0.00 | 0.00 | 51 | 1018.5 |
| 20260830203047 | 21 | 248 | 1.6 | 0.0 | 0.00 | 0.00 | 0.00 | 51 | 1018.3 |
| 20260830201545 | 22 | 249 | 3.2 | 0.0 | 0.00 | 0.00 | 0.00 | 52 | 1018.3 |
| 20260830200037 | 22 | 249 | 1.6 | 0.0 | 0.00 | 0.00 | 0.00 | 53 | 1018.6 |
| 20260830194543 | 22 | 263 | 1.6 | 0.0 | 0.00 | 0.00 | 0.00 | 54 | 1018.4 |
| 20260830193034 | 22 | 252 | 3.2 | 0.0 | 0.00 | 0.00 | 0.00 | 54 | 1018.6 |
| 20260830191527 | 23 | 269 | 4.8 | 0.0 | 0.00 | 0.00 | 0.00 | 53 | 1018.7 |
| 20260830190026 | 22 | 316 | 4.8 | 0.0 | 0.00 | 0.00 | 0.00 | 53 | 1018.8 |
| 20260830184524 | 23 | 264 | 4.8 | 0.0 | 0.00 | 0.00 | 0.00 | 52 | 1019.0 |